Regional Weather Roundup
Issued by NWS

Home | Current Version | Previous Version | Graphics & Text | Print | Product List | Glossary Off
Versions: 1 2 3 4 5 6 7 8 9 10 11 12 13 14 15 16 17 18 19 20 21 22 23 24 25 26 27 28 29 30 31 32 33 34 35 36 37 38 39 40 41 42 43 44 45 46 47 48 49 50

000
ASUS44 KFWD 220015
RWRTX
NORTH TEXAS HOURLY WEATHER ROUNDUP
NATIONAL WEATHER SERVICE FORT WORTH TX
700 PM CDT SUN SEP 21 2014

NOTE: "FAIR" INDICATES FEW OR NO CLOUDS BELOW 12,000 FEET WITH NO
SIGNIFICANT WEATHER AND/OR OBSTRUCTIONS TO VISIBILITY.

TXZ118-119-220100-
DALLAS/FORT WORTH METROPLEX

CITY           SKY/WX    TMP DP  RH WIND       PRES   REMARKS
DFW AIRPORT    PTCLDY    91  59  33 E3        30.01R HX  90
6HR MIN TEMP:  89; 6HR MAX TEMP:  95;

DALLAS LOVE    MOCLDY    91  59  33 E6        30.01R HX  90
6HR MIN TEMP:  89; 6HR MAX TEMP:  95;

FTW MEACHAM    CLEAR     90  60  36 SE6       30.01R
6HR MIN TEMP:  89; 6HR MAX TEMP:  95;

DAL-EXECUTIVE  CLEAR     91  61  36 E3        30.01R HX  91
6HR MIN TEMP:  90; 6HR MAX TEMP:  96;

FTW-ALLIANCE   PTCLDY    90  58  33 CALM      30.01R
6HR MIN TEMP:  89; 6HR MAX TEMP:  94;

FTW-NAS-JRB    CLEAR     93  59  31 NE6       30.05R HX  92
6HR MIN TEMP:  90; 6HR MAX TEMP:  97;

FTW-SPINKS     PTCLDY    90  59  35 NE5       30.03R
ARLINGTON      CLEAR     91  57  31 E5        30.01R
6HR MIN TEMP:  89; 6HR MAX TEMP:  94;

GRAND PRAIRIE  CLEAR     91  55  29 MISG      30.02R
ADDISON        PTCLDY    91  57  31 E5        30.02R HX  90
MESQUITE       MOCLDY    90  59  35 CALM      30.01R
LANCASTER      CLEAR     90  58  34 E5        30.01R
6HR MIN TEMP:  88; 6HR MAX TEMP:  94;

$$

TXZ091>094-102>105-117-120-121-131>134-220100-
NORTH CENTRAL TEXAS

CITY           SKY/WX    TMP DP  RH WIND       PRES   REMARKS
SHRMAN/DENISON PTCLDY    87  64  46 CALM      30.05R
6HR MIN TEMP:  87; 6HR MAX TEMP:  91;

GAINESVILLE    PTCLDY    87  64  47 CALM      30.07R
6HR MIN TEMP:  87; 6HR MAX TEMP:  90;

BOWIE          CLEAR     87  62  43 CALM      30.05R
6HR MIN TEMP:  87; 6HR MAX TEMP:  93;

BRIDGEPORT     CLEAR     88  58  35 NE6       30.05R
6HR MIN TEMP:  87; 6HR MAX TEMP:  92;

DECATUR        CLEAR     86  60  40 NE3       30.05R
6HR MIN TEMP:  86; 6HR MAX TEMP:  91;

DENTON         CLEAR     89  62  40 E3        30.02R
6HR MIN TEMP:  89; 6HR MAX TEMP:  93;

MCKINNEY       CLEAR     90  62  39 NE6       30.02R HX  90
6HR MIN TEMP:  89; 6HR MAX TEMP:  94;

GREENVILLE     CLEAR     90  61  37 CALM      30.01S
ROCKWALL       MOCLDY    87  65  47 E3        30.00R
6HR MIN TEMP:  87; 6HR MAX TEMP:  92;

TERRELL        MOCLDY    91  60  35 NE7       30.01R HX  90
6HR MIN TEMP:  91; 6HR MAX TEMP:  97;

WAXAHACHIE     CLEAR     90  54  29 CALM      30.03R
6HR MIN TEMP:  88; 6HR MAX TEMP:  94;

CLEBURNE       CLEAR     90  59  35 CALM      30.04R
GRANBURY       CLEAR     90  58  33 SE3       30.03R
6HR MIN TEMP:  89; 6HR MAX TEMP:  95;

$$

TXZ083>090-098>101-113>116-127>130-139>142-154-155-220100-
WESTERN NORTH TEXAS

CITY           SKY/WX    TMP DP  RH WIND       PRES   REMARKS
WICHITA FALLS  MOCLDY    89  62  40 SE7       30.04R
6HR MIN TEMP:  88; 6HR MAX TEMP:  93;

WF-KICKAPOO    PTCLDY    89  58  34 E7        30.05R
6HR MIN TEMP:  87; 6HR MAX TEMP:  94;

VERNON         CLOUDY    84  65  53 NE9       30.08R
ABILENE        MOCLDY    86  63  45 S8        30.07S
6HR MIN TEMP:  85; 6HR MAX TEMP:  91;

ABILENE-DYESS  CLOUDY    85  57  39 S8        30.07R
6HR MIN TEMP:  85; 6HR MAX TEMP:  89;

BRECKENRIDGE   PTCLDY    90  56  32 E3        30.03S
6HR MIN TEMP:  88; 6HR MAX TEMP:  94;

GRAHAM         CLEAR     88  56  34 E5        30.02R
6HR MIN TEMP:  88; 6HR MAX TEMP:  95;

MINERAL WELLS  CLEAR     89  57  33 E8        30.01R
6HR MIN TEMP:  88; 6HR MAX TEMP:  94;

STEPHENVILLE   CLEAR     86  60  40 CALM      30.07R
6HR MIN TEMP:  85; 6HR MAX TEMP:  91;

COMANCHE       CLEAR     85  59  41 E7        30.05S
6HR MIN TEMP:  85; 6HR MAX TEMP:  91;

BROWNWOOD      MOCLDY    84  66  54 SE5       30.05S
COLEMAN        CLOUDY    83  65  53 SE5       30.07R
6HR MIN TEMP:  83; 6HR MAX TEMP:  88;

BRADY          PTCLDY    84  63  48 E5        30.06S
$$

TXZ143>147-156>162-174-175-220100-
CENTRAL TEXAS

CITY           SKY/WX    TMP DP  RH WIND       PRES   REMARKS
WACO           CLEAR     89  60  37 SE5       30.00S
6HR MIN TEMP:  88; 6HR MAX TEMP:  93;

WACO-MCGREGOR  CLEAR     90  59  35 SE6       30.01S
6HR MIN TEMP:  90; 6HR MAX TEMP:  93;

HILLSBORO      CLEAR     90  56  31 E6        30.01S
6HR MIN TEMP:  87; 6HR MAX TEMP:  94;

CORSICANA      CLEAR     89  62  40 E3        30.01R
6HR MIN TEMP:  89; 6HR MAX TEMP:  95;

MEXIA          CLEAR     85  65  50 SE3       30.00R
6HR MIN TEMP:  85; 6HR MAX TEMP:  91;

HEARNE         CLEAR     86  66  50 CALM      30.00S
6HR MIN TEMP:  86; 6HR MAX TEMP:  91;

CAMERON        CLEAR     86  64  47 E3        30.01S
6HR MIN TEMP:  86; 6HR MAX TEMP:  91;

TEMPLE         CLEAR     86  61  42 E8        30.01S
6HR MIN TEMP:  86; 6HR MAX TEMP:  91;

KILLEEN        PTCLDY    84  63  48 E8        30.02S
KILLEEN-SKYLRK PTCLDY    84  63  48 E5        30.02S
6HR MIN TEMP:  84; 6HR MAX TEMP:  90;

FORT HOOD      PTCLDY    87  63  44 E3        30.02S
6HR MIN TEMP:  87; 6HR MAX TEMP:  94;

GATESVILLE     CLEAR     86  64  48 SE3       30.04S
HAMILTON       MOCLDY    86  59  39 SE6       30.05S
6HR MIN TEMP:  86; 6HR MAX TEMP:  91;

LAMPASAS       MOCLDY    84  66  54 E3        30.03S
6HR MIN TEMP:  83; 6HR MAX TEMP:  91;

$$

TXZ095>097-106>112-122>126-135>138-148>153-164>167-220100-
EAST TEXAS

CITY           SKY/WX    TMP DP  RH WIND       PRES   REMARKS
PARIS          CLEAR     84  66  54 NE6       30.03R
6HR MIN TEMP:  84; 6HR MAX TEMP:  90;

SULPHUR SPRNGS CLEAR     88  64  44 NE6       30.03R
6HR MIN TEMP:  88; 6HR MAX TEMP:  95;

MOUNT PLEASANT CLEAR     85  67  54 CALM      30.02S
6HR MIN TEMP:  85; 6HR MAX TEMP:  92;

GILMER         CLEAR     88  70  55 CALM      30.02R HX  92
MINEOLA        PTCLDY    90  64  43 CALM      30.01S HX  91
TYLER          CLEAR     88  67  49 CALM      30.01R HX  91
6HR MIN TEMP:  88; 6HR MAX TEMP:  93;

LONGVIEW       CLEAR     88  64  44 N3        29.98S
6HR MIN TEMP:  88; 6HR MAX TEMP:  95;

MARSHALL       CLEAR     89  67  47 N3        30.01R HX  92
6HR MIN TEMP:  89; 6HR MAX TEMP:  96;

ATHENS         PTCLDY    88  63  42 CALM      29.99S
PALESTINE      CLEAR     87  68  53 CALM      30.01R HX  90
JACKSONVILLE   CLEAR     87  63  44 CALM      30.03S
HENDERSON      PTCLDY    85  68  55 CALM      30.00S
6HR MIN TEMP:  85; 6HR MAX TEMP:  92;

NACOGDOCHES    MOCLDY    88  68  51 W3        29.99S HX  91
6HR MIN TEMP:  88; 6HR MAX TEMP:  93;

LUFKIN         CLEAR     88  71  57 CALM      29.99R HX  94
6HR MIN TEMP:  88; 6HR MAX TEMP:  94;

$$

SUPPLEMENTAL OBSERVATIONS (CENTRAL)

CITY           SKY/WX    TMP DP  RH WIND       PRES   REMARKS
LAKE TEXOMA      N/A     86  66  51 NE2         N/A
CADDO GRASSLND   N/A     81  72  74 NE1         N/A
PAT MAYSE LAKE   N/A     82  70  65 N3          N/A
GREENVILLE       N/A     88  64  45 NE5         N/A
CEDAR HILL       N/A     90  59  35 E1          N/A
ATHENS           N/A     88  63  42 NE2         N/A
PALESTINE        N/A     84  68  58 CALM        N/A
LAKE LIMESTONE   N/A     86  66  51 E2          N/A
MCGREGOR         N/A    N/A N/A N/A SE6         N/A
TEMPLE           N/A     84  61  45 E3G12       N/A
$$

SUPPLEMENTAL OBSERVATIONS (WEST)




USA.gov is the U.S. government's official web portal to all federal, state and local government web resources and services.